Location: Claremont
(33.9858°S, 18.4575°E)
Time: 05:18:13
(UTC+00:00)

Cosmos 1943 - Pass Details

Date: 03 March 2021
Orbit: 835 x 848 km, 71.0° (Epoch: 17 April)

Event Time Altitude Azimuth Distance (km) Brightness Sun altitude
Rises 19:51:12 0° 200° (SSW) 3,439 7.1 -30.1°
Reaches altitude 10° 19:53:40 10° 199° (SSW) 2,498 6.2 -30.5°
Enters shadow 19:58:07 55° 190° (S) 1,021 3.7 -31.3°
